1506646800.09,12774,16.31,74548.8,-4.73,-39.35,-39.53,0,*57
1506646801.34,12775,16.31,74550.5,-4.73,-39.35,-39.53,0,*56
1506646802.57,12776,16.31,74550.8,-4.73,-39.47,-39.65,0,*55
1506646803.82,12777,16.31,74550.5,-4.73,-39.35,-39.53,0,*54
1506646805.07,12778,16.31,74550.3,-4.73,-39.35,-39.53,0,*5B
1506646806.32,12779,16.31,74550.8,-4.73,-39.15,-39.35,0,*58
1506646807.57,12780,16.31,74554.5,-4.73,-39.15,-39.35,0,*5E
1506646808.86,12781,16.31,74552.8,-4.77,-39.41,-39.59,0,*50
1506646810.08,12782,16.31,74550.3,-4.73,-39.35,-39.47,0,*5B
1506646811.34,12783,16.31,74554.0,-4.77,-39.15,-39.35,0,*59
1506646812.57,12784,16.31,74554.5,-4.73,-39.09,-39.09,0,*58
1506646813.85,12785,16.31,74548.0,-4.77,-39.03,-39.23,0,*5F
1506646815.1,12786,16.31,74548.8,-4.73,-38.91,-38.97,0,*5C
1506646816.39,12787,16.31,74548.8,-4.77,-39.03,-39.15,0,*58
1506646817.67,12788,16.31,74546.0,-4.73,-39.15,-39.29,0,*5B
1506646818.92,12789,16.31,74548.3,-4.73,-39.15,-39.35,0,*57
1506646820.18,12790,16.31,74548.5,-4.73,-39.09,-39.15,0,*50
1506646821.46,12791,16.31,74550.0,-4.77,-39.03,-39.23,0,*5A
1506646822.74,12792,16.31,74552.8,-4.73,-38.91,-38.91,0,*5F
1506646823.99,12793,16.31,74550.3,-4.73,-39.29,-39.35,0,*53
1506646825.24,12794,16.31,74550.0,-4.73,-39.47,-39.71,0,*5C
1506646826.49,12795,16.31,74548.0,-4.73,-39.35,-39.41,0,*5B
1506646827.77,12796,16.31,74552.3,-4.77,-39.23,-39.41,0,*5B
1506646829.02,12797,16.31,74548.8,-4.77,-39.35,-39.53,0,*5E
1506646830.28,12798,16.31,74550.8,-4.73,-38.79,-38.97,0,*55
1506646831.56,12799,16.31,74550.8,-4.77,-39.23,-39.41,0,*54
1506646832.8,12800,16.31,74548.5,-4.73,-39.29,-39.35,0,*56
1506646834.03,12801,16.31,74554.0,-4.73,-38.97,-39.09,0,*5C
1506646835.28,12802,16.31,74548.0,-4.77,-38.97,-39.03,0,*51
1506646836.53,12803,16.31,74550.8,-4.77,-38.97,-39.15,0,*57
1506646837.79,12804,16.31,74550.5,-4.73,-39.09,-39.15,0,*52
1506646839.01,12805,16.31,74550.5,-4.73,-38.97,-39.09,0,*58
1506646840.3,12806,16.31,74550.5,-4.73,-39.15,-39.15,0,*5D
1506646841.58,12807,16.31,74552.0,-4.73,-39.15,-39.29,0,*53
1506646842.83,12808,16.31,74548.8,-4.73,-39.29,-39.35,0,*5E
1506646844.08,12809,16.31,74550.5,-4.73,-39.09,-39.29,0,*50
1506646845.32,12810,16.31,74552.3,-4.73,-39.35,-39.65,0,*5F
1506646846.6,12811,16.31,74550.0,-4.77,-39.53,-39.79,0,*57
1506646847.88,12812,16.31,74548.5,-4.73,-38.67,-38.79,0,*57
1506646849.16,12813,16.31,74550.8,-4.73,-39.15,-39.15,0,*59
1506646850.42,12814,16.31,74550.5,-4.77,-39.15,-39.35,0,*58
1506646851.7,12815,16.31,74550.5,-4.73,-38.91,-39.15,0,*52
1506646852.95,12816,16.31,74550.0,-4.73,-38.73,-38.91,0,*50
1506646854.23,12817,16.31,74546.8,-4.73,-38.67,-38.79,0,*52
1506646855.48,12818,16.31,74550.5,-4.73,-38.73,-38.91,0,*5E
1506646856.73,12819,16.31,74548.3,-4.69,-39.09,-39.41,0,*54
1506646857.98,12820,16.31,74550.5,-4.71,-39.15,-39.29,0,*54
1506646859.24,12821,16.31,74546.8,-4.71,-39.15,-39.29,0,*55
1506646860.46,12822,16.31,74550.0,-4.71,-39.15,-39.47,0,*5E
1506646861.72,12823,16.31,74548.0,-4.73,-39.09,-39.29,0,*58
1506646862.94,12824,16.31,74548.5,-4.73,-39.35,-39.47,0,*58
1506646864.22,12825,16.31,74552.5,-4.77,-39.53,-39.79,0,*50
1506646865.5,12826,16.31,74552.8,-4.77,-39.03,-39.23,0,*59
1506646866.78,12827,16.31,74548.0,-4.77,-39.03,-39.15,0,*5D
1506646868.06,12828,16.31,74550.3,-4.77,-39.41,-39.41,0,*55
1506646869.3,12829,16.31,74548.0,-4.73,-39.47,-39.65,0,*50
1506646870.55,12830,16.31,74548.3,-4.73,-38.91,-39.09,0,*58
1506646871.81,12831,16.31,74550.5,-4.73,-38.55,-38.79,0,*57
1506646873.09,12832,16.31,74548.0,-4.77,-39.15,-39.23,0,*5B
1506646874.34,12833,16.31,74548.5,-4.73,-39.29,-39.47,0,*53
1506646875.59,12834,16.31,74550.8,-4.73,-38.91,-39.09,0,*5C
1506646876.88,12835,16.31,74550.8,-4.73,-39.15,-39.29,0,*52
1506646878.1,12836,16.31,74548.5,-4.71,-38.79,-38.97,0,*5C
1506646879.35,12837,16.31,74544.5,-4.73,-39.29,-39.47,0,*57
1506646880.59,12838,16.31,74550.3,-4.73,-39.29,-39.35,0,*5D
1506646881.88,12839,16.31,74548.3,-4.73,-39.15,-39.29,0,*5E
1506646883.15,12840,16.31,74548.3,-4.73,-38.67,-38.91,0,*56
1506646884.4,12841,16.31,74548.5,-4.73,-39.35,-39.53,0,*5E
1506646885.65,12842,16.31,74552.0,-4.73,-39.15,-39.35,0,*5F
1506646886.91,12843,16.31,74550.3,-4.73,-39.35,-39.71,0,*5C
1506646888.16,12844,16.31,74550.5,-4.73,-39.47,-39.53,0,*5E
1506646889.41,12845,16.31,74548.3,-4.77,-39.23,-39.35,0,*59
1506646890.66,12846,16.31,74548.5,-4.73,-38.73,-38.91,0,*55
1506646891.92,12847,16.31,74548.8,-4.73,-39.09,-39.15,0,*55
1506646893.17,12848,16.31,74548.0,-4.73,-39.35,-39.53,0,*57
1506646894.39,12849,16.31,74550.5,-4.73,-39.35,-39.47,0,*53
1506646895.65,12850,16.31,74548.8,-4.73,-39.15,-39.35,0,*5C
1506646896.92,12851,16.31,74550.5,-4.73,-39.29,-39.29,0,*5F
1506646898.2,12852,16.31,74548.3,-4.73,-38.67,-38.79,0,*53
1506646899.45,12853,16.31,74550.0,-4.73,-38.67,-38.97,0,*52
1506646900.7,12854,16.31,74548.8,-4.73,-38.97,-39.15,0,*51
1506646901.95,12855,16.31,74554.8,-4.73,-39.15,-39.35,0,*59
1506646903.17,12856,16.31,74550.3,-4.73,-39.35,-39.35,0,*58
1506646904.43,12857,16.31,74550.5,-4.73,-39.09,-39.29,0,*5B
1506646905.68,12858,16.31,74548.5,-4.73,-39.15,-39.47,0,*51
1506646906.93,12859,16.31,74548.8,-4.73,-39.35,-39.53,0,*57
1506646908.18,12860,16.31,74554.5,-4.73,-39.15,-39.35,0,*5F
1506646909.43,12861,16.31,74548.8,-4.73,-39.29,-39.47,0,*54
1506646910.71,12862,16.31,74548.0,-4.77,-39.03,-39.15,0,*5C
1506646911.97,12863,16.31,74552.0,-4.77,-39.03,-39.09,0,*50
1506646913.22,12864,16.31,74550.8,-4.73,-39.15,-39.35,0,*5B
1506646914.48,12865,16.31,74550.3,-4.77,-39.35,-39.53,0,*5C
1506646915.76,12866,16.31,74550.0,-4.73,-39.15,-39.29,0,*54
1506646917.04,12867,16.31,74550.5,-4.77,-39.41,-39.53,0,*5D
1506646918.32,12868,16.31,74548.0,-4.77,-39.15,-39.23,0,*54
1506646919.57,12869,16.31,74550.5,-4.77,-39.35,-39.53,0,*50
1506646920.82,12870,16.31,74552.0,-4.73,-39.53,-39.85,0,*57
1506646922.1,12871,16.31,74548.5,-4.73,-39.53,-39.71,0,*5D
1506646923.33,12872,16.31,74550.0,-4.79,-39.79,-40.03,0,*57
1506646924.62,12873,16.31,74552.0,-4.73,-39.59,-39.71,0,*55
1506646925.88,12874,16.31,74550.0,-4.77,-38.97,-39.15,0,*57
1506646927.13,12875,16.31,74548.8,-4.77,-39.35,-39.41,0,*5E
1506646928.41,12876,16.31,74550.8,-4.77,-39.41,-39.53,0,*5D
1506646929.69,12877,16.31,74546.8,-4.77,-39.53,-39.79,0,*57
1506646930.97,12878,16.31,74550.3,-4.77,-39.53,-39.71,0,*50
1506646932.22,12879,16.31,74550.0,-4.77,-39.35,-39.53,0,*51
1506646933.47,12880,16.31,74548.8,-4.79,-38.67,-38.91,0,*50
1506646934.72,12881,16.31,74548.0,-4.73,-38.73,-38.79,0,*58
1506646935.97,12882,16.31,74550.8,-4.77,-38.97,-39.23,0,*5B
1506646937.26,12883,16.31,74550.8,-4.77,-39.41,-39.59,0,*5D
1506646938.52,12884,16.31,74550.3,-4.79,-39.41,-39.59,0,*54
1506646939.76,12885,16.31,74550.3,-4.79,-38.91,-39.03,0,*56
1506646940.99,12886,16.31,74550.3,-4.79,-39.09,-39.23,0,*57
1506646942.21,12887,16.31,74546.3,-4.79,-39.29,-39.47,0,*56
1506646943.47,12888,16.31,74548.0,-4.79,-39.41,-39.59,0,*58
1506646944.72,12889,16.31,74550.8,-4.79,-38.79,-38.91,0,*56
1506646945.98,12890,16.31,74550.0,-4.77,-38.79,-38.97,0,*56
1506646947.26,12891,16.31,74544.5,-4.77,-39.03,-39.23,0,*55
1506646948.51,12892,16.31,74550.5,-4.77,-38.97,-39.15,0,*5F
1506646949.8,12893,16.31,74548.0,-4.77,-39.41,-39.71,0,*56
1506646951.05,12894,16.31,74550.8,-4.77,-38.85,-39.03,0,*5D
1506646952.33,12895,16.31,74548.5,-4.77,-39.03,-39.23,0,*51
1506646953.62,12896,16.31,74552.3,-4.77,-39.03,-39.15,0,*57
1506646954.85,12897,16.31,74552.5,-4.77,-38.73,-38.85,0,*58
1506646956.11,12898,16.31,74548.5,-4.77,-38.79,-38.97,0,*5E
1506646957.36,12899,16.31,74548.5,-4.73,-39.09,-39.29,0,*59
1506646958.65,12900,16.31,74552.0,-4.77,-39.03,-39.15,0,*59
1506646959.87,12901,16.31,74548.3,-4.77,-38.43,-38.73,0,*5C
1506646961.15,12902,16.31,74550.5,-4.77,-39.03,-39.23,0,*5E
1506646962.41,12903,16.31,74550.0,-4.73,-39.09,-39.15,0,*54
1506646963.66,12904,16.31,74550.8,-4.77,-39.35,-39.41,0,*59
1506646964.91,12905,16.31,74550.5,-4.77,-39.35,-39.41,0,*58
1506646966.15,12906,16.31,74548.0,-4.73,-39.35,-39.65,0,*59
1506646967.43,12907,16.31,74550.0,-4.77,-39.41,-39.71,0,*5A
1506646968.72,12908,16.31,74550.3,-4.77,-39.41,-39.59,0,*5F
1506646969.99,12909,16.31,74548.0,-4.77,-39.23,-39.41,0,*53
1506646971.27,12910,16.31,74548.0,-4.77,-39.41,-39.41,0,*5F
1506646972.55,12911,16.31,74548.0,-4.77,-39.23,-39.53,0,*59
1506646973.78,12912,16.31,74550.8,-4.77,-38.73,-38.85,0,*54
1506646975.04,12913,16.31,74548.5,-4.77,-38.85,-39.03,0,*53
1506646976.32,12914,16.31,74552.5,-4.77,-39.23,-39.41,0,*5F
1506646977.6,12915,16.31,74550.8,-4.77,-39.03,-39.23,0,*58
1506646978.88,12916,16.31,74548.8,-4.73,-39.15,-39.29,0,*52
1506646980.13,12917,16.31,74548.3,-4.73,-38.91,-39.09,0,*5C
1506646981.38,12918,16.31,74550.8,-4.73,-39.29,-39.47,0,*5B
1506646982.64,12919,16.31,74550.3,-4.77,-39.15,-39.35,0,*54
1506646983.89,12920,16.31,74550.0,-4.77,-39.35,-39.53,0,*5C
1506646985.17,12921,16.31,74548.0,-4.77,-39.23,-39.23,0,*5D
1506646986.45,12922,16.31,74550.8,-4.77,-39.03,-39.23,0,*5C
1506646987.72,12923,16.31,74548.0,-4.73,-39.29,-39.53,0,*56
1506646988.97,12924,16.31,74548.5,-4.73,-39.15,-39.47,0,*5B
1506646990.22,12925,16.31,74548.3,-4.77,-39.35,-39.53,0,*59
1506646991.5,12926,16.31,74550.3,-4.77,-39.53,-39.59,0,*50
1506646992.79,12927,16.31,74550.8,-4.77,-39.41,-39.59,0,*52
1506646994.05,12928,16.31,74550.0,-4.77,-38.79,-38.97,0,*54
1506646995.31,12929,16.31,74548.5,-4.77,-38.79,-38.97,0,*55
1506646996.56,12930,16.31,74552.0,-4.77,-38.85,-39.03,0,*52
1506646997.82,12931,16.31,74548.0,-4.77,-39.15,-39.35,0,*5E
1506646999.11,12932,16.31,74550.0,-4.77,-39.15,-39.15,0,*5F
1506647000.39,12933,16.31,74546.3,-4.77,-38.79,-39.03,0,*52
1506647001.65,12934,16.31,74550.5,-4.73,-38.79,-38.97,0,*5D
1506647002.9,12935,16.31,74548.0,-4.77,-39.35,-39.41,0,*5B
1506647004.15,12936,16.31,74546.3,-4.77,-39.35,-39.41,0,*58
1506647005.44,12937,16.31,74548.5,-4.77,-39.15,-39.23,0,*5F
1506647006.68,12938,16.31,74550.0,-4.77,-38.97,-39.23,0,*5B
1506647007.96,12939,16.31,74554.5,-4.77,-39.23,-39.23,0,*54
1506647009.25,12940,16.31,74550.3,-4.77,-39.41,-39.59,0,*53
1506647010.5,12941,16.31,74548.0,-4.77,-39.35,-39.53,0,*5B
1506647011.75,12942,16.31,74548.5,-4.77,-38.97,-39.03,0,*54
1506647013.03,12943,16.31,74544.8,-4.77,-39.23,-39.41,0,*5D
1506647014.3,12944,16.31,74550.0,-4.77,-39.23,-39.41,0,*5A
1506647015.58,12945,16.31,74548.8,-4.77,-39.03,-39.03,0,*5F
1506647016.83,12946,16.31,74550.5,-4.77,-39.35,-39.41,0,*5F
1506647018.09,12947,16.31,74550.8,-4.79,-39.41,-39.59,0,*5A
1506647019.35,12948,16.31,74550.0,-4.79,-39.41,-39.59,0,*55
1506647020.58,12949,16.31,74550.5,-4.79,-39.09,-39.29,0,*5F
1506647021.83,12950,16.31,74550.8,-4.79,-39.03,-39.23,0,*57
1506647023.05,12951,16.31,74548.5,-4.79,-39.29,-39.47,0,*5C
1506647024.25,12952,16.31,74546.5,-4.79,-39.47,-39.65,0,*57
1506647025.51,12953,16.31,74550.0,-4.79,-39.29,-39.59,0,*51
1506647026.75,12954,16.31,74552.0,-4.79,-39.29,-39.41,0,*5F
1506647028.0,12955,16.31,74548.8,-4.79,-39.23,-39.23,0,*50
1506647029.23,12956,16.31,74548.0,-4.79,-39.29,-39.65,0,*5B
1506647030.44,12957,16.31,74550.5,-4.79,-39.47,-39.65,0,*52
1506647031.67,12958,16.31,74548.0,-4.79,-39.47,-39.79,0,*50
1506647032.9,12959,16.31,74548.3,-4.79,-39.47,-39.59,0,*53
1506647034.15,12960,16.31,74550.0,-4.79,-39.29,-39.41,0,*58
1506647035.4,12961,16.31,74550.8,-4.79,-39.03,-39.23,0,*55
1506647036.65,12962,16.31,74550.3,-4.81,-39.29,-39.47,0,*5B
1506647037.87,12963,16.31,74550.3,-4.79,-39.29,-39.47,0,*5D
1506647039.12,12964,16.31,74546.8,-4.79,-39.41,-39.59,0,*5B
1506647040.4,12965,16.31,74550.8,-4.81,-39.23,-39.41,0,*50
1506647041.61,12966,16.31,74550.3,-4.79,-39.09,-39.09,0,*50
1506647042.83,12967,16.31,74550.8,-4.79,-39.29,-39.47,0,*59
1506647044.08,12968,16.31,74548.5,-4.79,-39.23,-39.29,0,*54
1506647045.33,12969,16.31,74550.0,-4.81,-39.09,-39.23,0,*50
1506647046.59,12970,16.31,74550.3,-4.81,-38.85,-38.91,0,*55
1506647047.82,12971,16.31,74548.3,-4.79,-39.09,-39.29,0,*54
1506647049.1,12972,16.31,74548.5,-4.81,-39.23,-39.29,0,*58
1506647050.35,12973,16.31,74550.0,-4.79,-39.23,-39.41,0,*50
1506647051.6,12974,16.31,74552.5,-4.79,-39.23,-39.23,0,*53
1506647052.87,12975,16.31,74550.8,-4.81,-39.29,-39.29,0,*55
1506647054.12,12976,16.31,74548.8,-4.79,-39.29,-39.41,0,*5F
1506647055.33,12977,16.25,74546.8,-4.79,-39.47,-39.65,0,*50
1506647056.53,12978,16.31,74550.5,-4.79,-39.65,-39.85,0,*51
1506647057.79,12979,16.31,74546.8,-4.81,-39.09,-39.29,0,*5B
1506647059.05,12980,16.31,74548.8,-4.81,-39.09,-39.23,0,*57
1506647060.31,12981,16.31,74550.3,-4.81,-39.47,-39.59,0,*51
1506647061.54,12982,16.31,74550.3,-4.79,-39.47,-39.79,0,*57
1506647062.77,12983,16.31,74544.8,-4.81,-39.47,-39.65,0,*5C
1506647064.05,12984,16.31,74548.0,-4.81,-39.23,-39.29,0,*51
1506647065.31,12985,16.31,74548.8,-4.81,-38.91,-39.09,0,*5A
1506647066.53,12986,16.31,74550.3,-4.79,-39.29,-39.47,0,*56
1506647067.8,12987,16.31,74550.3,-4.81,-39.29,-39.41,0,*56
1506647069.05,12988,16.31,74548.3,-4.81,-39.29,-39.47,0,*5F
1506647070.3,12989,16.31,74546.5,-4.79,-39.03,-39.23,0,*53
1506647071.53,12990,16.31,74546.8,-4.79,-39.03,-39.09,0,*53
1506647072.76,12991,16.31,74548.3,-4.79,-39.03,-39.09,0,*52
1506647074.0,12992,16.31,74548.8,-4.81,-39.29,-39.47,0,*54
1506647075.25,12993,16.31,74548.0,-4.79,-39.23,-39.41,0,*5E
1506647076.5,12994,16.31,74548.5,-4.81,-39.29,-39.47,0,*52
1506647077.78,12995,16.31,74550.5,-4.81,-39.29,-39.59,0,*5C
1506647079.03,12996,16.31,74548.0,-4.79,-38.79,-39.03,0,*53
1506647080.28,12997,16.31,74550.0,-4.81,-39.09,-39.23,0,*51
1506647081.56,12998,16.31,74550.5,-4.81,-39.03,-39.23,0,*54
1506647082.82,12999,16.31,74548.5,-4.81,-39.09,-39.29,0,*55
1506647084.07,13000,16.31,74546.0,-4.79,-39.41,-39.59,0,*51
1506647085.35,13001,16.31,74546.5,-4.81,-39.29,-39.59,0,*59
1506647086.61,13002,16.25,74546.3,-4.81,-39.09,-39.23,0,*55
1506647087.89,13003,16.31,74546.8,-4.81,-39.29,-39.59,0,*5B
1506647089.17,13004,16.31,74546.5,-4.81,-39.23,-39.29,0,*51
1506647090.41,13005,16.31,74548.0,-4.79,-39.29,-39.41,0,*53
1506647091.7,13006,16.25,74544.0,-4.81,-39.41,-39.59,0,*50
1506647092.93,13007,16.31,74548.8,-4.79,-39.47,-39.79,0,*52
1506647094.19,13008,16.31,74550.5,-4.81,-39.47,-39.79,0,*5A
1506647095.47,13009,16.31,74548.5,-4.81,-39.41,-39.59,0,*5F
1506647096.75,13010,16.31,74548.0,-4.81,-39.29,-39.41,0,*50
1506647097.95,13011,16.31,74546.5,-4.83,-39.35,-39.65,0,*58
1506647099.17,13012,16.25,74546.0,-4.83,-39.47,-39.65,0,*5E
1506647100.43,13013,16.31,74548.8,-4.81,-39.47,-39.59,0,*52
1506647101.7,13014,16.31,74548.5,-4.81,-39.23,-39.41,0,*5E
1506647102.95,13015,16.31,74548.5,-4.81,-39.41,-39.47,0,*5D
1506647104.18,13016,16.31,74548.0,-4.83,-39.35,-39.53,0,*5A
1506647105.41,13017,16.31,74550.3,-4.83,-38.91,-39.09,0,*5B
1506647106.61,13018,16.25,74544.8,-4.83,-39.35,-39.47,0,*51
1506647107.86,13019,16.31,74546.5,-4.83,-39.53,-39.71,0,*55
1506647109.07,13020,16.31,74550.3,-4.83,-39.65,-39.91,0,*54
1506647110.28,13021,16.31,74550.0,-4.83,-39.47,-39.65,0,*5E
1506647111.48,13022,16.31,74548.3,-4.83,-39.35,-39.47,0,*58
1506647112.72,13023,16.31,74550.8,-4.85,-39.47,-39.65,0,*5A
1506647113.93,13024,16.31,74550.8,-4.83,-39.47,-39.65,0,*5B
1506647115.21,13025,16.25,74544.5,-4.85,-39.53,-39.71,0,*5C
1506647116.5,13026,16.31,74548.3,-4.85,-39.53,-39.71,0,*5F
1506647117.75,13027,16.31,74548.3,-4.83,-39.53,-39.71,0,*58
1506647118.95,13028,16.31,74548.5,-4.83,-38.97,-39.09,0,*51
1506647120.24,13029,16.31,74548.0,-4.85,-38.91,-39.15,0,*5D
1506647121.46,13030,16.31,74546.8,-4.83,-39.47,-39.53,0,*5B
1506647122.74,13031,16.31,74546.8,-4.85,-39.29,-39.53,0,*54
1506647124.0,13032,16.25,74544.8,-4.85,-39.09,-39.29,0,*58
1506647125.26,13033,16.25,74546.5,-4.85,-39.09,-39.29,0,*59
1506647126.48,13034,16.31,74548.0,-4.83,-39.35,-39.53,0,*5A
1506647127.71,13035,16.31,74546.8,-4.83,-39.53,-39.85,0,*50
1506647128.93,13036,16.31,74548.0,-4.85,-39.35,-39.47,0,*5B
1506647130.16,13037,16.31,74548.5,-4.85,-38.97,-39.09,0,*59
1506647131.44,13038,16.31,74546.5,-4.85,-39.29,-39.53,0,*5D
1506647132.68,13039,16.25,74546.8,-4.85,-39.47,-39.65,0,*51
1506647133.9,13040,16.31,74548.3,-4.83,-39.35,-39.53,0,*59
1506647135.16,13041,16.31,74550.5,-4.85,-39.53,-39.65,0,*5B
1506647136.42,13042,16.31,74548.0,-4.85,-38.91,-39.09,0,*5D
1506647137.65,13043,16.31,74550.3,-4.83,-39.09,-39.29,0,*58
1506647138.9,13044,16.31,74548.0,-4.85,-39.29,-39.47,0,*53
1506647140.16,13045,16.31,74550.0,-4.85,-39.09,-39.29,0,*58
1506647141.45,13046,16.31,74550.5,-4.85,-39.15,-39.29,0,*56
1506647142.73,13047,16.31,74548.5,-4.85,-39.53,-39.71,0,*58
1506647143.96,13048,16.31,74546.8,-4.85,-39.65,-39.85,0,*59
1506647145.21,13049,16.31,74546.3,-4.85,-38.97,-39.29,0,*52
1506647146.47,13050,16.31,74546.8,-4.85,-39.09,-39.29,0,*5C
1506647147.73,13051,16.31,74546.3,-4.85,-39.09,-39.29,0,*5D
1506647148.96,13052,16.25,74546.0,-4.85,-38.73,-38.97,0,*56
1506647150.22,13053,16.31,74548.3,-4.85,-39.09,-39.15,0,*50
1506647151.48,13054,16.25,74544.0,-4.85,-39.35,-39.53,0,*5A
1506647152.72,13055,16.31,74550.3,-4.85,-39.29,-39.35,0,*56
1506647153.96,13056,16.31,74546.5,-4.83,-39.09,-39.15,0,*53
1506647155.24,13057,16.31,74550.3,-4.85,-38.91,-39.15,0,*54
1506647156.45,13058,16.25,74544.8,-4.83,-38.73,-39.09,0,*5C
1506647157.7,13059,16.31,74550.5,-4.85,-38.97,-39.15,0,*5C
1506647158.95,13060,16.31,74548.0,-4.85,-38.97,-39.29,0,*59
1506647160.18,13061,16.31,74546.0,-4.83,-39.09,-39.29,0,*58
1506647161.41,13062,16.31,74546.8,-4.83,-39.15,-39.35,0,*5B
1506647162.61,13063,16.25,74546.8,-4.83,-39.35,-39.47,0,*5D
1506647163.82,13064,16.25,74546.0,-4.83,-38.85,-39.09,0,*5A
1506647165.08,13065,16.31,74550.3,-4.85,-38.73,-38.91,0,*54
1506647166.33,13066,16.31,74550.0,-4.83,-38.67,-38.91,0,*54
1506647167.53,13067,16.25,74546.8,-4.83,-38.55,-38.73,0,*58
1506647168.74,13068,16.31,74548.0,-4.83,-38.85,-38.97,0,*50
1506647169.94,13069,16.31,74544.8,-4.83,-38.55,-38.73,0,*56
1506647171.15,13070,16.31,74548.0,-4.83,-38.97,-39.09,0,*5C
1506647172.4,13071,16.25,74544.0,-4.83,-38.91,-39.15,0,*56
1506647173.64,13072,16.31,74548.0,-4.83,-39.15,-39.47,0,*5F
1506647174.88,13073,16.31,74546.8,-4.81,-39.23,-39.47,0,*59
1506647176.16,13074,16.31,74550.0,-4.81,-39.03,-39.23,0,*5E
1506647177.41,13075,16.31,74550.0,-4.81,-38.91,-39.09,0,*5D
1506647178.69,13076,16.25,74546.5,-4.81,-39.03,-39.23,0,*5C
1506647179.95,13077,16.31,74548.3,-4.81,-39.09,-39.29,0,*5D
1506647181.2,13078,16.31,74546.3,-4.81,-39.09,-39.29,0,*52
1506647182.46,13079,16.25,74546.8,-4.81,-39.09,-39.41,0,*5D
1506647183.68,13080,16.25,74544.8,-4.83,-39.29,-39.47,0,*5D
1506647184.91,13081,16.25,74546.0,-4.83,-39.35,-39.53,0,*54
1506647186.14,13082,16.25,74546.3,-4.83,-38.91,-39.09,0,*57
1506647187.42,13083,16.25,74546.3,-4.81,-38.49,-38.79,0,*57
1506647188.7,13084,16.31,74548.8,-4.81,-38.91,-39.23,0,*5B
1506647189.96,13085,16.25,74546.5,-4.81,-38.91,-39.09,0,*52
1506647191.23,13086,16.25,74546.5,-4.81,-38.91,-39.23,0,*59
1506647192.51,13087,16.25,74544.3,-4.81,-38.67,-38.91,0,*59
1506647193.77,13088,16.25,74544.8,-4.81,-39.03,-39.09,0,*55
1506647195.02,13089,16.25,74544.5,-4.79,-39.29,-39.59,0,*5E
1506647196.23,13090,16.25,74546.8,-4.83,-39.47,-39.65,0,*54
1506647197.45,13091,16.31,74546.5,-4.83,-38.97,-39.29,0,*51
1506647198.68,13092,16.31,74548.0,-4.83,-39.29,-39.47,0,*5E
1506647199.93,13093,16.25,74546.8,-4.81,-39.09,-39.41,0,*59
1506647201.21,13094,16.25,74544.8,-4.81,-38.91,-39.23,0,*5A
1506647202.46,13095,16.31,74546.0,-4.81,-38.85,-39.03,0,*5C
1506647203.72,13096,16.31,74548.3,-4.81,-38.85,-39.23,0,*5D
1506647204.97,13097,16.25,74546.3,-4.81,-39.29,-39.47,0,*59
1506647206.24,13098,16.25,74548.3,-4.81,-39.29,-39.41,0,*50
1506647207.52,13099,16.25,74544.8,-4.81,-39.23,-39.41,0,*5B
1506647208.79,13100,16.25,74546.3,-4.81,-39.03,-39.23,0,*5C
1506647210.04,13101,16.25,74544.0,-4.81,-39.29,-39.47,0,*57
1506647211.31,13102,16.25,74546.8,-4.81,-39.23,-39.41,0,*58
1506647212.56,13103,16.25,74546.0,-4.81,-39.23,-39.47,0,*5F
1506647213.84,13104,16.31,74550.3,-4.81,-39.23,-39.29,0,*50
1506647215.12,13105,16.31,74550.8,-4.81,-38.91,-39.29,0,*59
1506647216.35,13106,16.25,74548.3,-4.83,-39.15,-39.35,0,*58
1506647217.58,13107,16.25,74546.0,-4.83,-39.09,-39.29,0,*59
1506647218.86,13108,16.25,74544.8,-4.85,-38.91,-39.15,0,*5F
1506647220.14,13109,16.25,74546.8,-4.85,-39.15,-39.53,0,*51
1506647221.38,13110,16.31,74548.3,-4.81,-39.09,-39.09,0,*5F
1506647222.61,13111,16.25,74546.8,-4.83,-39.09,-39.29,0,*5E
1506647223.82,13112,16.25,74546.3,-4.83,-39.09,-39.35,0,*50
1506647225.04,13113,16.31,74550.5,-4.83,-39.29,-39.47,0,*56
1506647226.27,13114,16.25,74546.8,-4.83,-39.15,-39.47,0,*5E
1506647227.47,13115,16.25,74548.3,-4.83,-39.35,-39.47,0,*5D
1506647228.7,13116,16.25,74548.5,-4.83,-39.15,-39.35,0,*59
1506647229.93,13117,16.25,74548.3,-4.83,-39.15,-39.35,0,*58
1506647231.13,13118,16.25,74546.0,-4.83,-38.97,-39.09,0,*53
1506647232.39,13119,16.25,74544.0,-4.85,-38.91,-39.09,0,*52
1506647233.65,13120,16.25,74544.3,-4.83,-39.15,-39.29,0,*51
1506647234.89,13121,16.25,74546.5,-4.83,-39.09,-39.15,0,*52
1506647236.11,13122,16.25,74544.5,-4.83,-38.97,-39.15,0,*57
1506647237.34,13123,16.25,74542.3,-4.83,-38.91,-38.97,0,*5B
1506647238.57,13124,16.25,74546.5,-4.81,-38.61,-38.85,0,*52
1506647239.85,13125,16.25,74546.8,-4.81,-38.79,-39.03,0,*55
1506647241.11,13126,16.25,74546.8,-4.81,-38.67,-38.85,0,*56
1506647242.35,13127,16.25,74544.8,-4.79,-39.03,-39.23,0,*5E
1506647243.64,13128,16.25,74546.3,-4.81,-39.29,-39.59,0,*53
1506647244.89,13129,16.31,74548.0,-4.81,-38.91,-39.09,0,*55
1506647246.14,13130,16.25,74544.5,-4.79,-38.67,-39.03,0,*59
1506647247.37,13131,16.25,74544.5,-4.81,-38.61,-38.85,0,*56
1506647248.63,13132,16.25,74546.0,-4.79,-38.49,-38.79,0,*5B
1506647249.86,13133,16.25,74546.8,-4.81,-38.61,-38.85,0,*54
1506647251.07,13134,16.25,74544.5,-4.79,-38.61,-38.85,0,*54
1506647252.35,13135,16.25,74546.3,-4.81,-38.79,-38.91,0,*5E
1506647253.61,13136,16.25,74544.5,-4.81,-39.09,-39.29,0,*59
1506647254.85,13137,16.25,74542.5,-4.81,-38.85,-39.09,0,*5F
1506647256.13,13138,16.25,74544.3,-4.81,-38.49,-38.67,0,*59
1506647257.36,13139,16.25,74546.3,-4.79,-38.43,-38.67,0,*55
1506647258.59,13140,16.25,74544.3,-4.79,-38.61,-38.79,0,*54
1506647259.85,13141,16.25,74546.0,-4.79,-38.49,-38.67,0,*50
1506647261.08,13142,16.25,74546.3,-4.77,-38.35,-38.55,0,*57
1506647262.34,13143,16.25,74544.0,-4.77,-38.73,-38.79,0,*5A
1506647263.62,13144,16.25,74544.5,-4.77,-39.15,-39.23,0,*52
1506647264.88,13145,16.25,74544.5,-4.77,-38.85,-39.15,0,*5E
1506647266.17,13146,16.25,74544.0,-4.77,-39.15,-39.23,0,*50
1506647267.45,13147,16.25,74548.0,-4.77,-39.15,-39.41,0,*55
1506647268.73,13148,16.25,74544.5,-4.77,-39.23,-39.41,0,*5F
1506647269.94,13149,16.25,74546.8,-4.79,-39.47,-39.65,0,*54
1506647271.19,13150,16.25,74548.8,-4.79,-39.41,-39.59,0,*55
1506647272.4,13151,16.25,74546.3,-4.79,-39.47,-39.65,0,*5D
1506647273.64,13152,16.25,74544.3,-4.79,-39.59,-39.85,0,*5F
1506647274.9,13153,16.25,74544.0,-4.81,-39.47,-39.59,0,*57
1506647276.14,13154,16.25,74546.0,-4.79,-39.29,-39.41,0,*56
1506647277.37,13155,16.25,74546.3,-4.79,-39.09,-39.29,0,*5B
1506647278.62,13156,16.25,74544.8,-4.79,-39.23,-39.41,0,*5E
1506647279.87,13157,16.31,74550.8,-4.81,-39.29,-39.47,0,*54
1506647281.1,13158,16.25,74546.8,-4.79,-38.85,-39.03,0,*5B
1506647282.32,13159,16.31,74550.0,-4.79,-39.09,-39.29,0,*57
1506647283.57,13160,16.25,74546.5,-4.79,-39.23,-39.29,0,*55
1506647284.82,13161,16.25,74548.3,-4.81,-39.23,-39.47,0,*5B
1506647286.07,13162,16.25,74546.3,-4.81,-39.29,-39.47,0,*52
1506647287.32,13163,16.25,74546.5,-4.81,-39.29,-39.47,0,*53
1506647288.54,13164,16.25,74544.8,-4.79,-39.09,-39.23,0,*53
1506647289.82,13165,16.25,74544.5,-4.81,-39.03,-39.29,0,*55
1506647291.1,13166,16.31,74548.3,-4.81,-39.29,-39.59,0,*59
1506647292.36,13167,16.25,74546.0,-4.81,-39.09,-39.29,0,*5D
1506647293.64,13168,16.25,74544.8,-4.81,-39.23,-39.29,0,*5A
1506647294.91,13169,16.25,74546.5,-4.81,-39.23,-39.41,0,*55
1506647296.19,13170,16.25,74544.5,-4.81,-39.29,-39.41,0,*57
1506647297.46,13171,16.25,74546.0,-4.81,-39.23,-39.29,0,*52
1506647298.7,13172,16.25,74544.8,-4.81,-39.47,-39.65,0,*5B
1506647299.98,13173,16.25,74544.8,-4.81,-39.23,-39.29,0,*50